SCP
0 0 0 0 0 0 0 0 0 0 0 0 0 0 0 0 0 0 0 0 0 0 0 0 0 0 0 0 0 0 0 0 0 0 0 0 0 0 0 0 0 0 0
0 0 0 0 0 0 0 0 0 0 0 0 0 0 0 0 0 0 0 0 0 0 0 0 0 0 0 0 0 0 0 0 0 0 0 0 0 0 0 0 0 0 0
0 0 0 0 0 0 0 0 0 0 0 0 0 0 0 0 0 0 0 0 0 0 0 0 0 0 0 0 0 0 0 0 0 0 0 0 0 0 0 0 0 0 0
0 0 0 0 0 0 0 0 0 0 0 0 0 0 0 0 0 0 0 0 0 0 0 0 0 0 0 0 0 0 0 0 0 0 0 0 0 0 0 0 0 0 0
0 0 0 0 0 0 0 0 0 0 0 0 0 0 0 0 0 0 0 0 0 0 0 0 0 0 0 0 0 0 0 0 0 0 0 0 0 0 0 0 0 0 0
0 0 0 0 0 0 0 0 0 0 0 0 0 0 0 0 0 0 0 0 0 0 0 0 0 0 0 0 0 0 0 0 0 0 0 0 0 0 0 0 0 0 0
0 0 0 0 0 0 0 0 0 0 0 0 0 0 0 0 0 0 0 0 0 0 0 0 0 0 0 0 0 0 0 0 0 0 0 0 0 0 0 0 0 0 0
0 0 0 0 0 0 0 0 0 0 0 0 0 0 0 0 0 0 0 0 0 0 0 0 0 0 0 0 0 0 0 0 0 0 0 0 0 0 0 0 0 0 0
0 0 0 0 0 0 0 0 0 0 0 0 0 0 0 0 0 0 0 0 0 0 0 0 0 0 0 0 0 0 0 0 0 0 0 0 0 0 0 0 0 0 0
0 0 0 0 0 0 0 0 0 0 0 0 0 0 0 0 0 0 0 0 0 0 0 0 0 0 0 0 0 0 0 0 0 0 0 0 0 0 0 0 0 0 0
0 0 0 0 0 0 0 0 0 0 0 0 0 0 0 0 0 0 0 0 0 0 0 0 0 0 0 0 0 0 0 0 0 0 0 0 0 0 0 0 0 0 0
0 0 0 0 0 0 0 0 0 0 0 0 0 0 0 0 0 0 0 0 0 0 0 0 0 0 0 0 0 0 0 0 0 0 0 0 0 0 0 0 0 0 0
0 0 0 0 0 0 0 0 0 0 0 0 0 0 0 0 0 0 0 0 0 0 0 0 0 0 0 0 0 0 0 0 0 0 0 0 0 0 0 0 0 0 0
0 0 0 0 0 0 0 0 0 0 0 0 0 0 0 0 0 0 0 0 0 0 0 0 0 0 0 0 0 0 0 0 0 0 0 0 0 0 0 0 0 0 0
0 0 0 0 0 0 0 0 0 0 0 0 0 0 0 0 0 0 0 0 0 0 0 0 0 0 0 0 0 0 0 0 0 0 0 0 0 0 0 0 0 0 0
0 0 0 0 0 0 0 0 0 0 0 0 0 0 0 0 0 0 0 0 0 0 0 0 0 0 0 0 0 0 0 0 0 0 0 0 0 0 0 0 0 0 0
0 0 0 0 0 0 0 0 0 0 0 0 0 0 0 0 0 0 0 0 0 0 0 0 0 0 0 0 0 0 0 0 0 0 0 0 0 0 0 0 0 0 0
0 0 0 0 0 0 0 0 0 0 0 0 0 0 0 0 0 0 0 0 0 0 0 0 0 0 0 0 0 0 0 0 0 0 0 0 0 0 0 0 0 0 0
0 0 0 0 0 0 0 0 0 0 0 0 0 0 0 0 0 0 0 0 0 0 0 0 0 0 0 0 0 0 0 0 0 0 0 0 0 0 0 0 0 0 0
0 0 0 0 0 0 0 0 0 0 0 0 0 0 0 0 0 0 0 0 0 0 0 0 0 0 0 0 0 0 0 0 0 0 0 0 0 0 0 0 0 0 0
0 0 0 0 0 0 0 0 0 0 0 0 0 0 0 0 0 0 0 0 0 0 0 0 0 0 0 0 0 0 0 0 0 0 0 0 0 0 0 0 0 0 0
0 0 0 0 0 0 0 0 0 0 0 0 0 0 0 0 0 0 0 0 0 0 0 0 0 0 0 0 0 0 0 0 0 0 0 0 0 0 0 0 0 0 0
0 0 0 0 0 0 0 0 0 0 0 0 0 0 0 0 0 0 0 0 0 0 0 0 0 0 0 0 0 0 0 0 0 0 0 0 0 0 0 0 0 0 0
0 0 0 0 0 0 0 0 0 0 0 0 0 0 0 0 0 0 0 0 0 0 0 0 0 0 0 0 0 0 0 0 0 0 0 0 0 0 0 0 0 0 0
0 0 0 0 0 0 0 0 0 0 0 0 0 0 0 0 0 0 0 0 0 0 0 0 0 0 0 0 0 0 0 0 0 0 0 0 0 0 0 0 0 0 0
0 0 0 0 0 0 0 0 0 0 0 0 0 0 0 0 0 0 0 0 0 0 0 0 0 0 0 0 0 0 0 0 0 0 0 0 0 0 0 0 0 0 0
Wind_Speed
2 2 2 2 2 2 2 2 2 2 3 3 3 4 4 4 4 3 1 1 4 5 6 6 6 6 5 5 5 5 4 5 6 5 5 5 5 5 5 6 6 6 6
2 2 2 2 2 2 2 2 3 3 3 3 4 4 4 4 4 3 3 2 3 4 6 6 6 6 6 6 6 6 6 6 6 6 6 6 6 6 6 6 7 7 7
3 2 2 2 2 2 3 3 3 3 3 3 4 4 4 4 4 3 3 3 2 3 4 6 7 7 7 7 7 6 6 6 6 6 6 7 7 7 7 7 6 7 7
3 3 2 2 2 3 2 2 2 2 3 3 3 3 3 3 4 3 3 3 2 2 2 4 6 7 7 7 7 6 7 6 6 7 7 7 7 7 7 7 7 8 8
3 3 3 2 3 3 3 2 2 2 3 3 3 3 3 3 3 3 3 2 2 2 2 2 4 5 7 7 7 7 7 7 7 7 7 7 7 8 7 8 8 8 9
3 3 3 3 3 3 3 3 3 3 3 3 3 3 3 3 3 2 2 2 2 2 3 3 3 3 5 7 7 8 7 7 7 7 8 8 7 8 8 8 7 7 8
3 4 3 3 4 3 3 3 3 3 2 2 2 2 2 3 2 2 1 1 1 2 3 3 3 3 3 5 6 7 7 7 8 8 8 8 7 8 8 8 8 8 8
4 3 4 3 3 3 3 3 3 2 1 1 1 2 2 2 2 2 2 1 2 2 3 3 4 4 4 3 3 5 7 7 8 8 7 7 7 8 8 8 8 8 8
4 4 4 3 3 3 2 3 3 3 2 2 2 2 2 2 2 2 2 2 2 2 3 3 4 4 5 4 3 4 6 7 8 7 7 7 8 8 8 8 8 8 9
4 4 3 3 3 3 3 3 3 3 3 3 2 2 3 2 2 2 2 2 3 3 3 3 3 4 4 4 3 5 6 7 7 7 7 8 8 9 9 9 8 9 8
3 3 4 3 3 3 4 4 3 4 4 4 3 2 3 3 4 3 4 3 3 3 3 4 3 3 4 4 4 4 6 7 7 7 7 8 8 9 9 9 9 9 8
2 3 4 4 3 3 4 3 3 4 4 4 4 4 3 3 3 4 5 5 4 3 4 3 3 3 3 4 4 5 5 6 7 7 7 8 9 9 10 10 9 9 8
3 3 3 4 3 3 4 3 4 4 5 5 4 4 4 4 3 4 4 4 5 4 3 3 3 3 3 3 3 5 5 6 6 6 7 8 8 9 9 10 10 9 8
3 4 4 4 4 4 4 4 4 4 4 4 5 5 4 4 4 4 4 4 5 4 4 4 3 3 3 3 4 5 4 5 6 6 7 7 7 8 9 9 10 9 7
3 4 4 4 4 4 4 4 3 4 4 4 4 5 4 3 4 4 4 5 5 5 4 4 2 2 3 3 4 4 4 4 6 6 6 6 7 7 8 8 10 8 7
4 4 4 4 4 4 4 4 3 4 4 4 3 4 4 3 3 4 4 4 5 5 5 3 3 3 4 3 4 4 4 5 5 5 5 6 6 6 7 8 8 7 7
4 4 4 4 4 4 4 4 4 4 4 4 4 4 4 4 3 3 3 3 4 4 5 4 3 4 4 4 3 3 3 3 3 4 5 6 6 6 7 6 6 7 7
4 4 4 4 4 4 4 4 4 5 5 4 4 4 4 3 4 3 3 4 4 4 4 5 4 4 4 3 3 3 3 3 3 4 5 6 6 5 5 5 6 7 7
4 4 4 4 4 4 4 4 4 5 5 4 4 4 5 4 4 4 4 4 3 3 3 4 4 4 3 2 3 3 3 3 3 3 4 3 4 4 5 5 5 6 7
4 4 4 4 4 4 4 4 4 4 4 4 4 4 4 4 5 5 4 4 3 3 3 3 3 3 3 2 2 2 2 3 3 3 3 3 3 4 4 5 5 6 6
4 4 3 3 3 3 3 3 4 4 4 4 4 4 4 4 4 4 3 3 3 3 3 3 3 3 2 1 2 2 2 3 3 2 3 3 3 3 3 3 4 5 6
3 3 3 3 3 3 3 5 4 4 4 4 4 4 3 4 4 3 4 4 4 4 4 3 3 3 3 2 2 2 2 2 2 2 3 4 3 3 3 3 5 6 6
3 3 3 3 3 3 4 5 5 4 4 4 4 3 3 2 3 3 3 4 4 4 5 4 4 4 3 2 2 2 2 3 3 3 3 3 3 3 3 3 6 6 6
3 2 2 3 3 3 4 4 4 3 3 3 3 3 3 3 3 2 2 2 2 3 3 3 3 3 2 2 2 2 2 2 2 2 3 2 3 4 4 4 5 6 6
2 2 2 2 3 3 3 2 2 2 2 2 2 3 3 3 3 3 3 3 2 2 2 2 3 2 1 1 2 1 1 1 2 2 2 2 3 4 4 3 3 6 7
2 2 2 2 2 2 2 2 2 2 2 2 2 2 3 3 2 2 3 2 2 2 1 1 1 0 0 0 1 1 1 2 1 1 1 1 2 3 3 3 4 4 4
Wind_Direction
272 278 282 285 286 287 270 275 275 278 270 265 261 261 262 259 250 251 243 260 286 289 288 290 290 283 282 274 271 275 286 285 288 291 301 302 295 296 297 290 293 291 294
269 276 276 277 280 284 282 270 272 274 275 270 264 261 263 257 247 253 261 243 257 283 287 288 293 289 286 280 274 277 277 278 284 281 287 291 293 294 294 294 291 295 292
263 268 274 273 277 278 273 266 264 268 273 269 263 262 264 253 247 253 256 260 250 256 280 288 293 292 292 289 276 277 279 280 281 285 283 282 282 284 288 290 296 297 296
255 262 268 270 272 270 267 264 260 262 264 270 272 267 262 246 239 248 252 255 263 269 268 289 293 294 292 291 287 284 279 276 279 278 281 280 278 278 279 284 287 293 294
254 256 261 265 264 264 264 265 262 262 269 278 276 271 262 251 241 238 242 253 265 279 284 295 291 297 300 300 294 294 285 276 277 278 280 283 280 275 271 277 281 286 289
252 255 256 255 256 253 255 255 263 257 264 278 277 273 266 263 250 236 238 249 267 284 288 293 290 298 301 303 299 299 290 283 279 276 277 278 282 279 274 275 279 285 290
249 254 258 255 252 245 248 254 260 251 254 271 271 272 255 243 241 253 257 264 273 286 292 295 295 298 295 296 296 302 296 289 284 283 280 280 280 280 280 280 280 284 289
248 252 249 249 254 250 246 251 252 243 250 248 255 269 263 218 202 245 245 258 281 285 288 292 296 294 294 289 303 304 302 296 287 286 288 285 281 281 281 286 283 283 289
248 248 247 251 252 257 258 254 246 231 228 242 257 259 249 257 308 237 243 247 274 287 291 294 295 297 295 292 289 303 308 304 294 292 292 295 290 285 286 287 289 289 290
250 251 255 255 250 254 256 251 245 237 230 235 245 261 274 273 266 279 250 254 276 278 285 287 285 286 286 285 290 303 311 307 299 296 296 298 297 294 292 291 289 293 291
260 259 257 255 254 255 255 251 245 242 237 237 238 238 244 252 248 250 268 274 274 271 281 282 282 282 282 280 279 300 310 307 307 302 302 303 303 302 303 299 295 297 292
261 260 259 255 254 255 254 248 243 244 241 236 239 238 235 233 233 236 255 270 279 278 283 275 277 281 286 282 286 309 306 306 306 307 308 307 304 303 305 310 301 297 292
259 257 252 253 250 249 256 253 245 242 239 238 237 243 247 251 256 255 257 268 277 279 269 264 272 279 284 282 284 303 297 304 305 307 309 310 309 308 306 315 309 303 298
260 262 256 255 256 253 250 242 243 242 240 240 241 243 249 250 246 244 247 259 271 269 260 265 267 270 281 283 294 296 291 300 302 304 306 308 310 311 312 318 318 303 306
263 258 256 252 252 253 252 245 245 244 243 241 241 241 247 250 250 253 249 246 253 264 269 267 266 272 286 286 289 287 289 299 302 302 307 311 312 311 310 312 317 310 313
267 261 258 254 252 251 249 244 248 248 247 248 249 248 251 254 251 249 253 254 249 256 265 275 280 286 286 284 289 287 290 301 301 304 307 310 313 309 314 314 316 315 314
266 264 260 252 248 245 246 240 245 244 245 249 249 251 257 260 255 255 252 249 245 250 261 277 282 289 281 285 289 290 297 296 295 306 304 307 308 308 311 318 322 321 317
262 260 254 248 246 244 245 239 241 243 245 248 249 252 256 252 249 254 250 247 247 249 252 269 279 284 285 289 296 300 308 304 305 314 306 307 309 318 322 323 331 330 325
264 263 256 248 246 243 243 238 235 241 248 252 252 251 252 247 244 248 250 252 252 255 258 263 275 286 288 292 306 314 316 311 309 306 307 316 329 335 335 338 338 335 329
264 261 255 250 244 241 240 235 232 237 247 253 254 257 256 252 250 248 250 252 251 254 254 256 267 280 281 298 299 312 323 329 326 328 329 329 327 327 329 331 334 334 327
267 262 254 248 244 238 238 230 228 232 238 245 250 254 254 261 269 262 256 248 245 242 245 245 256 267 273 286 298 318 312 327 328 328 326 324 324 324 319 321 325 330 327
269 263 254 248 247 243 246 237 234 226 233 240 248 256 259 254 260 268 280 279 266 251 245 240 250 251 263 289 305 302 307 313 316 333 325 324 326 323 324 327 336 331 328
264 262 257 252 254 253 249 233 225 230 236 240 244 249 252 254 258 249 253 267 278 286 273 252 246 255 257 269 271 272 280 293 298 307 314 311 319 319 325 329 333 329 332
265 264 265 264 260 255 246 234 222 225 232 241 246 248 251 254 253 252 257 257 269 279 277 263 257 268 275 264 253 254 274 300 312 318 309 292 311 318 324 325 337 336 336
262 268 267 268 269 266 248 239 232 226 226 239 252 255 256 249 249 253 254 249 261 277 302 298 293 290 287 289 287 219 245 273 301 317 329 308 314 321 317 318 334 339 338
258 264 265 272 278 275 254 240 244 233 227 229 231 241 257 262 256 254 253 244 248 264 279 309 311 347 321 262 299 267 240 249 287 289 318 318 306 326 320 318 329 330 334